EW6292 Weather Reports


Display with metric or nautical units.
time (UTC)temp
F
wind
direction
speed
MPH
gust
MPH
rain 1hr
in
rain 24hr
in
rain mn
in
humidity
%
barometer
mb
20260510225503 71 350 5.0 10.0 0.00 0.00 0.00 57 1015.5
20260510225001 71 328 4.0 9.0 0.00 0.00 0.00 59 1015.5
20260510224501 72 350 4.0 10.0 0.00 0.00 0.00 59 1015.7
20260510224001 72 312 5.0 14.0 0.00 0.00 0.00 57 1015.6
20260510223500 72 355 6.0 14.0 0.00 0.00 0.00 57 1015.5
20260510223001 72 339 5.0 13.0 0.00 0.00 0.00 58 1015.4
20260510222513 72 35 4.0 13.0 0.00 0.00 0.00 60 1015.3
20260510222001 73 342 4.0 9.0 0.00 0.00 0.00 62 1015.3
20260510221500 73 42 4.0 10.0 0.00 0.00 0.00 61 1015.2
20260510220958 73 60 5.0 13.0 0.00 0.00 0.00 62 1015.3
20260510220459 73 78 5.0 13.0 0.00 0.00 0.00 61 1015.1
20260510215952 73 22 5.0 11.0 0.00 0.00 0.00 61 1015.1
20260510215446 74 355 5.0 11.0 0.00 0.00 0.00 61 1015.1
20260510214947 74 24 4.0 12.0 0.00 0.00 0.00 62 1015.0
20260510214447 74 355 4.0 12.0 0.00 0.00 0.00 62 1015.0
20260510213946 75 341 5.0 11.0 0.00 0.00 0.00 62 1015.0
20260510213447 75 19 5.0 11.0 0.00 0.00 0.00 62 1014.9
20260510212946 75 5 5.0 12.0 0.00 0.00 0.00 61 1014.9
20260510212446 76 342 6.0 12.0 0.00 0.00 0.00 61 1014.9
20260510212209 77 350 5.0 10.0 0.00 0.00 0.00 61 1014.9
20260510211446 77 332 6.0 14.0 0.00 0.00 0.00 61 1014.8
20260510210947 78 12 4.0 14.0 0.00 0.00 0.00 58 1014.9
20260510210702 79 5 3.0 7.0 0.00 0.00 0.00 56 1014.7
20260510205945 79 37 3.0 7.0 0.00 0.00 0.00 56 1014.7
20260510205445 80 41 3.0 8.0 0.00 0.00 0.00 53 1014.7
20260510204943 80 31 3.0 8.0 0.00 0.00 0.00 54 1014.7
20260510204443 81 20 3.0 8.0 0.00 0.00 0.00 53 1014.6
20260510203943 81 350 3.0 9.0 0.00 0.00 0.00 54 1014.6
20260510203449 82 323 1.0 4.0 0.00 0.00 0.00 51 1014.7
20260510203443 82 331 2.0 9.0 0.00 0.00 0.00 52 1014.7
20260510202443 82 31 2.0 6.0 0.00 0.00 0.00 54 1014.7
20260510201943 82 32 3.0 6.0 0.00 0.00 0.00 51 1014.8
20260510201442 82 49 2.0 5.0 0.00 0.00 0.00 49 1014.8
20260510201206 81 323 2.0 5.0 0.00 0.00 0.00 51 1014.8
20260510200443 81 344 2.0 7.0 0.00 0.00 0.00 58 1014.9
20260510195943 80 32 3.0 7.0 0.00 0.00 0.00 51 1015.0
20260510195443 80 26 2.0 5.0 0.00 0.00 0.00 51 1015.0
20260510194942 80 41 3.0 6.0 0.00 0.00 0.00 54 1015.1
20260510194443 80 91 3.0 6.0 0.00 0.00 0.00 53 1015.2
20260510193942 81 31 2.0 6.0 0.00 0.00 0.00 51 1015.3
20260510193443 81 79 2.0 5.0 0.00 0.00 0.00 53 1015.3
20260510192942 82 286 2.0 5.0 0.00 0.00 0.00 54 1015.2
20260510192701 81 160 3.0 7.0 0.00 0.00 0.00 52 1015.2
20260510191938 81 57 3.0 7.0 0.00 0.00 0.00 51 1015.2
20260510191439 81 187 2.0 5.0 0.00 0.00 0.00 55 1015.1
20260510190939 80 308 2.0 5.0 0.00 0.00 0.00 54 1015.1
20260510190655 80 190 3.0 6.0 0.00 0.00 0.00 55 1015.1
20260510185939 80 42 3.0 9.0 0.00 0.00 0.00 52 1015.1
20260510185438 80 13 3.0 9.0 0.00 0.00 0.00 50 1015.1
20260510184938 80 327 2.0 6.0 0.00 0.00 0.00 52 1015.2
20260510184659 80 12 2.0 4.0 0.00 0.00 0.00 55 1015.2
20260510184158 80 22 2.0 6.0 0.00 0.00 0.00 52 1015.2
20260510183434 80 280 2.0 6.0 0.00 0.00 0.00 52 1015.2
20260510182933 80 310 2.0 5.0 0.00 0.00 0.00 56 1015.1
20260510182432 79 27 3.0 5.0 0.00 0.00 0.00 54 1015.1
20260510182154 79 340 3.0 8.0 0.00 0.00 0.00 52 1015.1
20260510181432 80 5 3.0 8.0 0.00 0.00 0.00 54 1015.1
20260510180932 80 18 3.0 9.0 0.00 0.00 0.00 56 1015.0
20260510180433 80 26 4.0 9.0 0.00 0.00 0.00 54 1015.0
20260510175932 80 338 3.0 8.0 0.00 0.00 0.00 54 1015.1
20260510175431 80 44 2.0 6.0 0.00 0.00 0.00 52 1015.1
20260510174930 80 175 1.0 4.0 0.00 0.00 0.00 55 1015.0
20260510174429 80 25 2.0 4.0 0.00 0.00 0.00 57 1015.1
20260510173922 80 62 3.0 8.0 0.00 0.00 0.00 56 1015.1
20260510173422 80 43 3.0 8.0 0.00 0.00 0.00 56 1015.2
20260510172922 80 14 2.0 5.0 0.00 0.00 0.00 55 1015.2
20260510172422 80 286 3.0 5.0 0.00 0.00 0.00 57 1015.2
20260510171922 80 9 3.0 8.0 0.00 0.00 0.00 57 1015.3
20260510171423 80 22 3.0 8.0 0.00 0.00 0.00 58 1015.5
20260510170922 80 61 3.0 8.0 0.00 0.00 0.00 54 1015.5
20260510170428 81 75 2.0 5.0 0.00 0.00 0.00 54 1015.5
20260510170422 81 5 2.0 6.0 0.00 0.00 0.00 55 1015.6
20260510165420 81 325 3.0 5.0 0.00 0.00 0.00 54 1015.4
20260510164921 81 46 2.0 5.0 0.00 0.00 0.00 51 1015.5
20260510164420 81 292 2.0 4.0 0.00 0.00 0.00 51 1015.6
20260510163919 81 229 2.0 4.0 0.00 0.00 0.00 50 1015.5
20260510163418 81 197 1.0 7.0 0.00 0.00 0.00 50 1015.4
20260510162918 81 213 1.0 7.0 0.00 0.00 0.00 53 1015.5
20260510162418 81 257 2.0 4.0 0.00 0.00 0.00 50 1015.5
20260510161917 81 333 2.0 5.0 0.00 0.00 0.00 49 1015.4
20260510161410 81 348 1.0 5.0 0.00 0.00 0.00 52 1015.5
20260510160903 81 355 1.0 5.0 0.00 0.00 0.00 50 1015.4
20260510160358 81 148 1.0 5.0 0.00 0.00 0.00 52 1015.4
20260510155851 80 234 1.0 4.0 0.00 0.00 0.00 51 1015.4
20260510155345 80 325 1.0 4.0 0.00 0.00 0.00 50 1015.4
20260510154840 80 219 1.0 4.0 0.00 0.00 0.00 53 1015.4
20260510154334 79 223 1.0 4.0 0.00 0.00 0.00 52 1015.3
20260510153828 79 247 2.0 5.0 0.00 0.00 0.00 53 1015.3
20260510153323 79 259 1.0 5.0 0.00 0.00 0.00 53 1015.2
20260510153033 79 255 0.0 3.0 0.00 0.00 0.00 56 1015.1
20260510152312 78 248 0.0 2.0 0.00 0.00 0.00 58 1014.9
20260510151804 78 217 0.0 0.0 0.00 0.00 0.00 58 1014.9
20260510151258 78 247 0.0 2.0 0.00 0.00 0.00 56 1014.9
20260510150752 77 254 0.0 2.0 0.00 0.00 0.00 59 1014.7
20260510150511 77 82 0.0 2.0 0.00 0.00 0.00 56 1014.8
20260510145740 77 263 0.0 2.0 0.00 0.00 0.00 59 1014.8
20260510145233 76 136 0.0 2.0 0.00 0.00 0.00 60 1014.8
20260510144741 76 183 0.0 2.0 0.00 0.00 0.00 65 1014.8
20260510144221 75 165 1.0 3.0 0.00 0.00 0.00 64 1014.8
20260510143715 74 242 1.0 3.0 0.00 0.00 0.00 64 1014.8
20260510143436 74 198 1.0 2.0 0.00 0.00 0.00 66 1014.6
20260510142703 73 204 1.0 3.0 0.00 0.00 0.00 66 1014.6
20260510142158 72 220 1.0 3.0 0.00 0.00 0.00 67 1014.6
20260510141651 71 157 0.0 3.0 0.00 0.00 0.00 68 1014.6
20260510141145 70 180 1.0 4.0 0.00 0.00 0.00 69 1014.6
20260510140643 69 124 1.0 4.0 0.00 0.00 0.00 68 1014.6
20260510140625 69 138 0.0 1.0 0.00 0.00 0.00 70 1014.8
20260510135624 68 201 0.0 0.0 0.00 0.00 0.00 71 1014.7
20260510135117 67 214 0.0 0.0 0.00 0.00 0.00 71 1014.7
20260510134612 66 144 0.0 0.0 0.00 0.00 0.00 72 1014.6
20260510134106 65 141 0.0 2.0 0.00 0.00 0.00 73 1014.5
20260510133600 65 161 0.0 2.0 0.00 0.00 0.00 75 1014.6
20260510133053 64 149 0.0 0.0 0.00 0.00 0.00 75 1014.6
20260510132548 63 130 0.0 0.0 0.00 0.00 0.00 76 1014.6
20260510132041 62 86 0.0 0.0 0.00 0.00 0.00 78 1014.7
20260510131536 62 120 0.0 1.0 0.00 0.00 0.00 78 1014.6
20260510131029 61 120 0.0 1.0 0.00 0.00 0.00 78 1014.7
20260510130523 61 120 0.0 0.0 0.00 0.00 0.00 80 1014.7
20260510130017 60 120 0.0 0.0 0.00 0.00 0.00 81 1014.7
20260510125511 60 120 0.0 0.0 0.00 0.00 0.00 81 1014.6
20260510125008 60 120 0.0 0.0 0.00 0.00 0.00 83 1014.6
20260510124500 59 120 0.0 0.0 0.00 0.00 0.00 83 1014.4
20260510123954 58 120 0.0 0.0 0.00 0.00 0.00 83 1014.3
20260510123448 58 120 0.0 0.0 0.00 0.00 0.00 84 1014.3
20260510122941 57 120 0.0 0.0 0.00 0.00 0.00 84 1014.3
20260510122436 56 120 0.0 0.0 0.00 0.00 0.00 85 1014.3
20260510121929 55 120 0.0 0.0 0.00 0.00 0.00 86 1014.2
20260510121424 55 120 0.0 0.0 0.00 0.00 0.00 85 1014.2
20260510120917 54 120 0.0 1.0 0.00 0.00 0.00 85 1014.2
20260510120411 54 120 0.0 1.0 0.00 0.00 0.00 85 1014.1
20260510115906 54 120 1.0 2.0 0.00 0.00 0.00 85 1014.0
20260510115359 53 120 0.0 2.0 0.00 0.00 0.00 85 1014.0
20260510115118 53 120 0.0 1.0 0.00 0.00 0.00 85 1013.9
20260510114347 53 5 0.0 0.0 0.00 0.00 0.00 85 1013.7
20260510113841 53 5 0.0 0.0 0.00 0.00 0.00 84 1013.6
20260510113336 53 5 0.0 0.0 0.00 0.00 0.00 84 1013.5
20260510112830 53 5 0.0 0.0 0.00 0.00 0.00 84 1013.5
20260510112520 53 5 0.0 0.0 0.00 0.00 0.00 83 1013.4
20260510112411 53 5 0.0 0.0 0.00 0.00 0.00 83 1013.4
20260510111314 53 5 0.0 0.0 0.00 0.00 0.00 83 1013.2
20260510110805 53 9 0.0 0.0 0.00 0.00 0.00 82 1013.2
20260510110308 53 9 0.0 0.0 0.00 0.00 0.00 82 1013.2
20260510105804 53 9 0.0 0.0 0.00 0.00 0.00 82 1013.2
20260510105306 53 9 0.0 0.0 0.00 0.00 0.00 82 1013.1
20260510104804 53 9 0.0 2.0 0.00 0.00 0.00 83 1013.2
20260510104521 53 9 0.0 2.0 0.00 0.00 0.00 83 1013.2
20260510103800 53 134 0.0 3.0 0.00 0.00 0.00 83 1013.2
20260510103258 53 134 1.0 3.0 0.00 0.00 0.00 83 1013.2
20260510102758 54 13 1.0 3.0 0.00 0.00 0.00 83 1013.1
20260510102258 54 122 1.0 3.0 0.00 0.00 0.00 83 1013.1
20260510101758 54 309 0.0 1.0 0.00 0.00 0.00 83 1013.0
20260510101258 54 256 1.0 3.0 0.00 0.00 0.00 83 1013.1
20260510100755 54 183 1.0 3.0 0.00 0.00 0.00 83 1012.8
20260510100511 54 317 1.0 4.0 0.00 0.00 0.00 84 1012.6
20260510095754 54 9 2.0 4.0 0.00 0.00 0.00 84 1013.0
20260510095509 54 331 1.0 4.0 0.00 0.00 0.00 84 1012.5
20260510094751 54 192 0.0 0.0 0.00 0.00 0.00 84 1012.5
20260510094737 54 192 0.0 0.0 0.00 0.00 0.00 84 1012.2
20260510093748 54 192 0.0 0.0 0.00 0.00 0.00 83 1012.2
20260510093247 54 192 0.0 0.0 0.00 0.00 0.00 83 1012.1
20260510092741 54 192 0.0 0.0 0.00 0.00 0.00 82 1012.0
20260510092240 54 192 0.0 0.0 0.00 0.00 0.00 82 1012.1
20260510091740 54 192 0.0 0.0 0.00 0.00 0.00 82 1012.0
20260510091503 54 192 0.0 0.0 0.00 0.00 0.00 81 1012.0
20260510090740 54 192 0.0 0.0 0.00 0.00 0.00 81 1012.0
20260510090239 54 192 0.0 0.0 0.00 0.00 0.00 81 1012.0
20260510085740 55 192 0.0 0.0 0.00 0.00 0.00 80 1012.0
20260510085237 55 192 0.0 0.0 0.00 0.00 0.00 79 1012.0
20260510084736 55 192 0.0 2.0 0.00 0.00 0.00 80 1011.9
20260510084236 55 192 0.0 2.0 0.00 0.00 0.00 79 1011.8
20260510083736 55 192 0.0 0.0 0.00 0.00 0.00 80 1011.9
20260510083233 55 192 0.0 0.0 0.00 0.00 0.00 80 1011.9
20260510082733 55 192 0.0 0.0 0.00 0.00 0.00 80 1011.7
20260510082456 56 192 0.0 0.0 0.00 0.00 0.00 80 1011.8
20260510081744 56 192 0.0 0.0 0.00 0.00 0.00 80 1011.8
20260510081231 56 192 0.0 0.0 0.00 0.00 0.00 78 1011.6
20260510080730 56 192 0.0 0.0 0.00 0.00 0.00 79 1011.5
20260510080229 56 192 0.0 0.0 0.00 0.00 0.00 79 1011.5
20260510075730 57 192 0.0 0.0 0.00 0.00 0.00 78 1011.5
20260510075446 57 192 0.0 0.0 0.00 0.00 0.00 78 1011.5
20260510074727 57 192 0.0 0.0 0.00 0.00 0.00 77 1011.6
20260510074447 57 192 0.0 0.0 0.00 0.00 0.00 77 1011.6
20260510073943 57 192 0.0 0.0 0.00 0.00 0.00 78 1011.6
20260510073445 58 192 0.0 0.0 0.00 0.00 0.00 78 1011.7
20260510072950 58 192 0.0 0.0 0.00 0.00 0.00 77 1011.7
20260510072447 58 192 0.0 0.0 0.00 0.00 0.00 77 1011.7
20260510071726 58 192 0.0 0.0 0.00 0.00 0.00 77 1011.7
20260510071223 58 192 0.0 0.0 0.00 0.00 0.00 77 1011.7
20260510070722 58 192 0.0 0.0 0.00 0.00 0.00 77 1011.7
20260510070221 58 192 0.0 0.0 0.00 0.00 0.00 77 1011.8
20260510065721 58 192 0.0 0.0 0.00 0.00 0.00 77 1011.7
20260510065438 58 192 0.0 0.0 0.00 0.00 0.00 77 1011.6
20260510064722 58 192 0.0 0.0 0.00 0.00 0.00 76 1011.4
20260510064219 58 192 0.0 0.0 0.00 0.00 0.00 76 1011.5
20260510063722 58 192 0.0 0.0 0.00 0.00 0.00 75 1011.5
20260510063219 58 192 0.0 0.0 0.00 0.00 0.00 74 1011.5
20260510062723 58 192 0.0 0.0 0.00 0.00 0.00 74 1011.4
20260510062446 58 192 0.0 0.0 0.00 0.00 0.00 75 1011.2
20260510061716 59 192 0.0 0.0 0.00 0.00 0.00 75 1011.4
20260510061215 59 192 0.0 0.0 0.00 0.00 0.00 74 1011.4
20260510060715 59 192 0.0 0.0 0.00 0.00 0.00 74 1011.4
20260510060455 59 192 0.0 0.0 0.00 0.00 0.00 74 1011.2
20260510055715 59 192 0.0 0.0 0.00 0.00 0.00 74 1011.2
20260510055215 59 192 0.0 0.0 0.00 0.00 0.00 73 1011.2
20260510054715 59 192 0.0 0.0 0.00 0.00 0.00 73 1011.2
20260510054216 60 192 0.0 0.0 0.00 0.00 0.00 73 1011.2
20260510053934 60 192 0.0 0.0 0.00 0.00 0.00 75 1011.1
20260510053216 60 192 0.0 0.0 0.00 0.00 0.00 74 1011.1
20260510052716 60 192 0.0 0.0 0.00 0.00 0.00 73 1011.1
20260510052216 60 192 0.0 0.0 0.00 0.00 0.00 73 1011.1
20260510051715 60 192 0.0 0.0 0.00 0.00 0.00 72 1011.1
20260510051216 60 192 0.0 0.0 0.00 0.00 0.00 72 1011.0
20260510050731 60 192 0.0 0.0 0.00 0.00 0.00 73 1011.1
20260510050215 60 192 0.0 0.0 0.00 0.00 0.00 74 1011.1
20260510045715 60 192 0.0 0.0 0.00 0.00 0.00 74 1011.0
20260510045207 60 192 0.0 0.0 0.00 0.00 0.00 73 1011.0
20260510044700 60 192 0.0 0.0 0.00 0.00 0.00 73 1011.0
20260510044201 60 192 0.0 0.0 0.00 0.00 0.00 73 1010.9
20260510043700 61 192 0.0 0.0 0.00 0.00 0.00 73 1010.9
20260510043158 61 192 0.0 0.0 0.00 0.00 0.00 73 1011.0
20260510042655 61 192 0.0 0.0 0.00 0.00 0.00 72 1011.0
20260510042415 61 192 0.0 0.0 0.00 0.00 0.00 71 1010.9
20260510041652 61 192 0.0 0.0 0.00 0.00 0.00 71 1010.9
20260510041149 61 192 0.0 0.0 0.00 0.00 0.00 71 1011.0
20260510040922 62 192 0.0 0.0 0.00 0.00 0.00 70 1011.0
20260510040405 62 192 0.0 0.0 0.00 0.00 0.00 70 1011.0
20260510035645 62 192 0.0 0.0 0.00 0.00 0.00 69 1011.0
20260510035145 62 192 0.0 0.0 0.00 0.00 0.00 69 1011.0
20260510034646 62 192 0.0 0.0 0.00 0.00 0.00 69 1011.0
20260510034145 62 192 0.0 0.0 0.00 0.00 0.00 69 1011.0
20260510034130 62 192 0.0 0.0 0.00 0.00 0.00 68 1011.1
20260510033143 62 192 0.0 0.0 0.00 0.00 0.00 68 1010.9
20260510032910 63 192 0.0 0.0 0.00 0.00 0.00 67 1011.0
20260510032141 63 192 0.0 0.0 0.00 0.00 0.00 66 1011.0
20260510031641 63 192 0.0 0.0 0.00 0.00 0.00 66 1011.1
20260510031137 63 192 0.0 0.0 0.00 0.00 0.00 65 1011.1
20260510030638 64 192 0.0 0.0 0.00 0.00 0.00 66 1011.0
20260510030145 64 192 0.0 0.0 0.00 0.00 0.00 66 1011.0
20260510030113 65 192 0.0 0.0 0.00 0.00 0.00 66 1011.0
20260510025121 65 192 0.0 0.0 0.00 0.00 0.00 67 1010.9
20260510024845 65 192 0.0 0.0 0.00 0.00 0.00 68 1010.9
20260510024109 65 192 0.0 0.0 0.00 0.00 0.00 63 1011.0
20260510023603 65 192 0.0 0.0 0.00 0.00 0.00 62 1010.9
20260510023325 65 192 0.0 0.0 0.00 0.00 0.00 63 1011.0
20260510022550 66 192 0.0 0.0 0.00 0.00 0.00 61 1010.8
20260510022313 66 192 0.0 0.0 0.00 0.00 0.00 60 1010.7
20260510021801 66 192 0.0 0.0 0.00 0.00 0.00 59 1010.6
20260510021033 67 192 0.0 0.0 0.00 0.00 0.00 59 1010.7
20260510020526 67 192 0.0 0.0 0.00 0.00 0.00 58 1010.6
20260510020020 67 192 0.0 0.0 0.00 0.00 0.00 58 1010.4
20260510015515 67 192 0.0 0.0 0.00 0.00 0.00 60 1010.5
20260510015009 68 192 0.0 0.0 0.00 0.00 0.00 57 1010.3
20260510014720 68 192 0.0 0.0 0.00 0.00 0.00 57 1010.2
20260510013959 69 192 0.0 0.0 0.00 0.00 0.00 57 1010.2
20260510013450 69 192 0.0 0.0 0.00 0.00 0.00 56 1010.1
20260510012945 69 192 0.0 0.0 0.00 0.00 0.00 55 1010.0
20260510012438 69 192 0.0 0.0 0.00 0.00 0.00 55 1010.0
20260510011933 70 192 0.0 0.0 0.00 0.00 0.00 54 1009.9
20260510011427 70 192 0.0 0.0 0.00 0.00 0.00 53 1009.9
20260510010921 71 192 0.0 0.0 0.00 0.00 0.00 53 1009.8
20260510010415 71 192 0.0 0.0 0.00 0.00 0.00 53 1009.7
20260510010133 71 192 0.0 0.0 0.00 0.00 0.00 52 1009.7
20260510005402 72 192 0.0 0.0 0.00 0.00 0.00 51 1009.6
20260510005332 73 192 0.0 0.0 0.00 0.00 0.00 50 1009.5
20260510004955 72 192 0.0 0.0 0.00 0.00 0.00 50 1009.6
20260510003845 73 192 0.0 0.0 0.00 0.00 0.00 49 1009.5
20260510003343 74 192 0.0 0.0 0.00 0.00 0.00 49 1009.5
20260510002843 74 192 0.0 0.0 0.00 0.00 0.00 48 1009.4
20260510002606 74 192 0.0 0.0 0.00 0.00 0.00 48 1009.3
20260510001838 75 192 0.0 0.0 0.00 0.00 0.00 48 1009.4
20260510001340 76 192 0.0 0.0 0.00 0.00 0.00 48 1009.3
20260510000839 76 192 0.0 0.0 0.00 0.00 0.00 48 1009.3
20260510000337 76 192 0.0 0.0 0.00 0.00 0.00 49 1009.3
20260510000056 77 192 0.0 0.0 0.00 0.00 0.00 49 1009.3
20260509235334 78 192 0.0 0.0 0.00 0.00 0.00 49 1009.1
20260509235104 78 192 0.0 0.0 0.00 0.00 0.00 47 1009.1
20260509234333 79 192 0.0 0.0 0.00 0.00 0.00 45 1009.1
20260509233834 80 192 0.0 0.0 0.00 0.00 0.00 44 1009.0
20260509233334 80 192 0.0 0.0 0.00 0.00 0.00 44 1009.1
20260509232831 80 192 0.0 0.0 0.00 0.00 0.00 45 1009.0
20260509232329 81 192 0.0 0.0 0.00 0.00 0.00 47 1009.0
20260509231830 82 246 0.0 0.0 0.00 0.00 0.00 43 1009.1
20260509231329 83 246 0.0 0.0 0.00 0.00 0.00 44 1009.0
20260509230826 83 246 0.0 0.0 0.00 0.00 0.00 44 1009.0
20260509230325 83 203 0.0 0.0 0.00 0.00 0.00 40 1009.0
20260509225825 83 203 0.0 0.0 0.00 0.00 0.00 43 1009.0